Tracking 19246 objects as of 20-Aug-2018
HD Live streaming from Space Station
objects crossing your sky now

IRIDIUM 80


IRIDIUM 80 is no longer on orbit
IRIDIUM 80 is classified as:


NORAD ID: 25469
Int'l Code: 1998-051C
Perigee: N/A
Apogee: N/A
Inclination: N/A
Period: N/A
Semi major axis: N/A
RCS: N/A
Launch date: September 8, 1998
Source: United States (US)
Launch site: AIR FORCE WESTERN TEST RANGE (AFWTR)
Decay date: 2018-08-12
aabbcc
Your satellite tracking list
Your tracking list is empty




NASA's NSSDC Master Catalog

Two Line Element Set (TLE):
1 25469U 98051C   18223.95200989 +.22939717 -17519-5 +20398-3 0  9991
2 25469 086.3453 203.0951 0057884 256.2593 103.3611 16.45147878043532
Source of the keplerian elements: AFSPC